Regional Weather Roundup
Issued by NWS Kansas City/Pleasant Hill, MO

Home | Current Version | Previous Version | Graphics & Text | Print | Product List | Glossary Off
Versions: 1 2 3 4 5 6 7 8 9 10 11 12 13 14 15 16 17 18 19 20 21 22 23 24 25 26 27 28 29 30 31 32 33 34 35 36 37 38 39 40 41 42 43 44 45 46 47 48 49 50

000
ASUS43 KEAX 192304
RWREAX

WEATHER ROUNDUP FOR EASTERN KANSAS AND NORTHWEST MISSOURI
NATIONAL WEATHER SERVICE KANSAS CITY/PLEASANT HILL MO
600 PM CDT FRI SEP 19 2014

KSZ040-057-103>105-MOZ028-029-037-043-200000-
...KANSAS CITY METROPOLITAN AREA...

CITY           SKY/WX    TMP DP  RH WIND       PRES   REMARKS
K.C. INTL      MOSUNNY   78  69  73 S10       29.94F
K.C. DOWNTOWN  MOSUNNY   80  68  66 S7        29.93F
LEES SUMMIT    SUNNY     78  68  71 S10       29.96F
OLATHE - IXD   SUNNY     79  69  71 S12       29.95F
OLATHE - OJC   SUNNY     78  69  73 S12       29.95S
LAWRENCE       MOSUNNY   80  67  64 S14       29.93S

$$

MOZ001>008-011>017-020>025-030>033-038>040-044>046-053-054-200000-
...NORTHERN AND CENTRAL MISSOURI...

CITY           SKY/WX    TMP DP  RH WIND       PRES   REMARKS
ST. JOSEPH     MOSUNNY   77  68  73 S14       29.91F
MOSBY          PTCLDY    77  68  73 S8        29.95S
WHITEMAN AFB   NOT AVBL
CLINTON        MOSUNNY   79  70  73 CALM      29.98S
SEDALIA        MOSUNNY   77  65  66 S9        29.99S
WARSAW         NOT AVBL
MARSHALL       MOSUNNY   79  66  65 S8        29.98S
CHILLICOTHE      N/A     77  66  68 S10       29.96S
MOBERLY        SUNNY     77  59  53 S8        30.00S
KIRKSVILLE     SUNNY     74  62  66 S13       29.98S

$$

MOZ041-047>049-056>058-063>065-088>090-097-200000-
...EASTERN AND SOUTHERN MISSOURI...

CITY           SKY/WX    TMP DP  RH WIND       PRES   REMARKS
ST. LOUIS INTL MOSUNNY   78  57  48 S7        30.01S
SPIRIT OF STL  MOSUNNY   76  58  53 SE3       30.00S
COLUMBIA       SUNNY     76  63  64 S6        30.00S
JEFFERSON CITY SUNNY     78  61  55 S7        29.99S
MEXICO         SUNNY     79  64  61 S7        30.00S
ROLLA          HAZE      75  60  59 S8        30.00F VSB 1/4
LEBANON        SUNNY     77  63  61 S6        30.02F
OSAGE BEACH    SUNNY     79  63  57 S5        30.00S
SPRINGFIELD    MOSUNNY   77  64  64 S6        30.01S
BRANSON        SUNNY     82  64  54 E8        30.02S
NEVADA         SUNNY     81  68  65 S6        29.98F
JOPLIN         MOSUNNY   79  68  69 W9        29.98F
WEST PLAINS    MOSUNNY   77  62  59 SE5       30.04S

$$

IAZ060-094-KSZ022-034>040-054-083-096-NEZ052-066-093-200000-
...KANSAS...SOUTHEAST NEBRASKA AND IOWA...

CITY           SKY/WX    TMP DP  RH WIND       PRES   REMARKS
TOPEKA         SUNNY     82  69  64 S9        29.92S
MANHATTAN      SUNNY     85  71  63 S18G24    29.87F HX  90
EMPORIA        MOSUNNY   76  68  76 S13       29.95S
CHANUTE        CLOUDY    75  68  78 S10G23    29.98S
WICHITA        MOSUNNY   88  64  44 S20       29.91S
OMAHA          MOSUNNY   85  68  56 S20G29    29.78F
LINCOLN        SUNNY     88  65  46 S16       29.80S HX  90
FALLS CITY     SUNNY     80  69  69 S16       29.87S
LAMONI         MOSUNNY   75  66  73 S15G21    29.92S
DES MOINES     PTSUNNY   78  66  66 S20G25    29.85F

$$



USA.gov is the U.S. government's official web portal to all federal, state and local government web resources and services.